KB3UQE Weather Reports


time (UTC)temp
F
wind
direction
speed
knots
gust
knots
rain 1hr
in
rain 24hr
in
rain mn
in
humidity
%
barometer
mb
20260507050523 61 0.0 0.0 0.00 0.00 0.00 61 1007.7
20260507044423 63 0.0 0.0 0.00 0.00 0.00 62 1007.4
20260507042022 64 0.0 0.0 0.00 0.00 0.00 62 1007.1
20260507035622 65 0.0 0.0 0.00 0.00 0.00 62 1006.7
20260507033222 66 0.0 0.0 0.00 0.00 0.00 63 1006.7
20260507030822 67 0.0 0.0 0.00 0.00 0.00 63 1006.5
20260507024422 67 0.0 0.0 0.00 0.00 0.00 63 1006.0
20260507022022 67 0.0 0.0 0.00 0.00 0.00 63 1006.0
20260507015621 67 0.0 0.0 0.00 0.00 0.00 64 1006.0
20260507013221 67 0.0 0.0 0.00 0.00 0.00 64 1006.3
20260507010820 67 0.0 0.0 0.00 0.00 0.00 64 1005.9
20260507004720 66 0.0 0.0 0.00 0.00 0.00 64 1005.7
20260507002320 67 0.0 0.0 0.00 0.00 0.00 64 1005.5
20260506235919 68 0.0 0.0 0.00 0.00 0.00 64 1005.2
20260506233519 69 0.0 0.0 0.00 0.00 0.00 64 1004.9
20260506231119 71 0.0 0.0 0.00 0.00 0.00 64 1004.8
20260506225019 71 0.0 0.0 0.00 0.00 0.00 64 1004.7
20260506222919 72 0.0 0.0 0.00 0.00 0.00 65 1004.7
20260506220518 72 0.0 0.0 0.00 0.00 0.00 64 1004.7
20260506214418 72 0.0 0.0 0.00 0.00 0.00 64 1004.6
20260506212018 72 0.0 0.0 0.00 0.00 0.00 64 1004.4
20260506205617 74 0.0 0.0 0.00 0.00 0.00 63 1004.4
20260506203517 76 0.0 0.0 0.00 0.00 0.00 63 1004.0
20260506201417 78 0.0 0.0 0.00 0.00 0.00 63 1003.8
20260506195019 78 0.0 0.0 0.00 0.00 0.00 62 1003.9
20260506192617 77 0.0 0.0 0.00 0.00 0.00 62 1004.3
20260506190217 74 0.0 0.0 0.00 0.00 0.00 62 1004.6
20260506183815 72 0.0 0.0 0.00 0.00 0.00 61 1005.0
20260506181715 71 0.0 0.0 0.00 0.00 0.00 61 1005.1
20260506175615 69 0.0 0.0 0.00 0.00 0.00 60 1005.2
20260506173514 68 0.0 0.0 0.00 0.00 0.00 59 1005.6
20260506171714 67 0.0 0.0 0.00 0.00 0.00 59 1008.4
20260506165614 66 0.0 0.0 0.00 0.00 0.00 57 1006.0
20260506163514 66 0.0 0.0 0.00 0.00 0.00 56 1004.8
20260506161414 67 0.0 0.0 0.00 0.00 0.00 53 1006.3
20260506155313 67 0.0 0.0 0.00 0.00 0.00 52 1007.6
20260506153213 65 0.0 0.0 0.00 0.00 0.00 51 1008.9
20260506150813 65 0.0 0.0 0.00 0.00 0.00 48 1007.7
20260506144412 65 0.0 0.0 0.00 0.00 0.00 46 1007.5
20260506142013 65 0.0 0.0 0.00 0.00 0.00 43 1007.5
20260506135614 66 0.0 0.0 0.00 0.00 0.00 41 1007.0
20260506133211 67 0.0 0.0 0.00 0.00 0.00 41 1006.6
20260506131111 70 0.0 0.0 0.00 0.00 0.00 40 1006.4
20260506125011 68 0.0 0.0 0.00 0.00 0.00 40 1006.7
20260506122914 68 0.0 0.0 0.00 0.00 0.00 40 1006.8
20260506120808 69 0.0 0.0 0.00 0.00 0.00 40 1006.8
20260506114408 69 0.0 0.0 0.00 0.00 0.00 40 1006.4
20260506112308 68 0.0 0.0 0.00 0.00 0.00 40 1006.6
20260506110207 66 0.0 0.0 0.00 0.00 0.00 40 1006.4
20260506104107 65 0.0 0.0 0.00 0.00 0.00 40 1006.3
20260506102007 65 0.0 0.0 0.00 0.00 0.00 40 1006.2
20260506095907 64 0.0 0.0 0.00 0.00 0.00 40 1006.2
20260506093807 64 0.0 0.0 0.00 0.00 0.00 40 1006.2
20260506091706 65 0.0 0.0 0.00 0.00 0.00 40 1006.3
20260506085515 65 0.0 0.0 0.00 0.00 0.00 40 1006.4
20260506085434 65 0.0 0.0 0.00 0.00 0.00 40 1006.4
20260506083415 65 0.0 0.0 0.00 0.00 0.00 40 1006.3
20260506083334 65 0.0 0.0 0.00 0.00 0.00 40 1006.3
20260506081315 66 0.0 0.0 0.00 0.00 0.00 39 1006.1
20260506081239 66 0.0 0.0 0.00 0.00 0.00 39 1006.1
20260506072606 67 0.0 0.0 0.00 0.00 0.00 39 1006.3
20260506070205 66 0.0 0.0 0.00 0.00 0.00 39 1006.5
20260506061405 65 0.0 0.0 0.00 0.00 0.00 39 1006.8